Volver al catálogo

STARLINK-36439

ActivoComunicacionesVLEO
NORAD 67624·PAYLOAD·🇺🇸 United States

Lanzado Jan 30, 2026 desde Cape Canaveral Space Force Station

Loading…

Próximos Pases (próximas 24 horas)

TLE

ActualizadoSource: CelesTrak SupGP

Época: Sep 14, 2026, 22:56 UTC

1 67624C 26020H   26257.95604167 -.00029210  00000+0 -10582-2 0  2575
2 67624  43.0001 150.8573 0001319 265.4485 325.4900 15.27585693    17

Sigue STARLINK-36439 en tiempo real con AllMySat

Download on the App Store